AZERSPACE 2 (IS-38)

Last updated on Sun Dec 14 2025 00:02:52 GMT+0000 (Coordinated Universal Time)

1 43632U 18074A 25347.21264171 .00000150 00000+0 00000+0 0 9997 2 43632 0.0184 341.0479 0001340 286.2367 296.5271 1.00271556 26583
UTC large
Height (km)
Speed (km/s)
/
Latitude / Longitude
Inclination (degrees)
Orbital Period (minutes)
Azimuth
Elevation
Range (km)
Doppler Factor

Next 0 passes for location: London (51.5072 / 0.1276)

Sorry there are no passes over London.